Gorizont
NORAD ID: 23108
Int'l Code: 1994-030A
Perigee: 35,803.4 km
Apogee: 35,836.2 km
Inclination: 13.3 °
Period: 1,437.4 minutes
Semi major axis: 42190 km
Launch date: May 20, 1994
Source: Commonwealth of Independent States (former USSR) (CIS)
Two Line Element Set (TLE):
1 23108U 94030A 13139.12719130 -.00000347 00000-0 10000-3 0 9103
2 23108 013.2660 033.1945 0003885 074.5522 285.4418 01.00178983 69596
Source:
NASA's NSSDC Master Catalog entry for GORIZONT 30